This is the latest recevied weather packets stored in our database for station/object SP2ARQ-13. If no packets are shown the sender has not sent any weather packets the latest 10 day(s).
| Time | Temp. | Humidity | Pressure | Rain* | Wind** | Luminosity | Snow |
|---|---|---|---|---|---|---|---|
| 1777888653 | 26.67° C | 40% | 1011.5 hPa | - | - | - | - |
| 1777887753 | 25.56° C | 40% | 1011.5 hPa | - | - | - | - |
| 1777886853 | 24.44° C | 42% | 1011.6 hPa | - | - | - | - |
| 1777885953 | 24.44° C | 42% | 1011.7 hPa | - | - | - | - |
| 1777885053 | 23.33° C | 43% | 1011.8 hPa | - | - | - | - |
| 1777884152 | 24.44° C | 44% | 1011.7 hPa | - | - | - | - |
| 1777883252 | 23.33° C | 44% | 1011.7 hPa | - | - | - | - |
| 1777882352 | 23.33° C | 45% | 1011.7 hPa | - | - | - | - |
| 1777881452 | 21.67° C | 47% | 1011.6 hPa | - | - | - | - |
| 1777880552 | 21.11° C | 48% | 1011.5 hPa | - | - | - | - |
| 1777879652 | 21.11° C | 48% | 1011.3 hPa | - | - | - | - |
| 1777878751 | 20° C | 49% | 1011.2 hPa | - | - | - | - |
| 1777877851 | 19.44° C | 50% | 1011.4 hPa | - | - | - | - |
| 1777876951 | 18.33° C | 51% | 1011.2 hPa | - | - | - | - |
| 1777876051 | 17.78° C | 52% | 1011.3 hPa | - | - | - | - |
| 1777875151 | 17.22° C | 53% | 1011.3 hPa | - | - | - | - |
| 1777874251 | 16.67° C | 53% | 1011.1 hPa | - | - | - | - |
| 1777873350 | 16.11° C | 54% | 1011.1 hPa | - | - | - | - |
| 1777872450 | 16.11° C | 53% | 1011 hPa | - | - | - | - |
| 1777871550 | 16.11° C | 55% | 1011.2 hPa | - | - | - | - |
| 1777870650 | 16.11° C | 55% | 1011 hPa | - | - | - | - |
| 1777869750 | 15.56° C | 56% | 1010.9 hPa | - | - | - | - |
| 1777868850 | 15° C | 57% | 1011 hPa | - | - | - | - |
| 1777867949 | 14.44° C | 59% | 1011.1 hPa | - | - | - | - |
| 1777867049 | 14.44° C | 59% | 1011.1 hPa | - | - | - | - |
* Rain since midnight (hover to see other rain measurements)
** Current wind speed in m/s (hover to see current wind gust speed)